Hlavní strana
METAR-TAF:

METAR-TAF

Letiště :

Sveg, Švédsko

zeměpisná šířka: 62-02-52N, zeměpisná délka: 014-25-22E, výška: 359 m

Aktuální stav počasí

Zpráva byla vytvořena před 30 minutami, v 21:50 UTC
Západní vítr 7 kt
Teplota 4°C
Vlhkost vzduchu 81%
Tlak 1011 hPa
Viditelnost 10 km a více

METAR: ESND 132150Z AUTO 27007KT 9999 OVC017/// 04/01 Q1011

Čas: 23:20 (22:20 UTC)


TAF: chybějící

Stav a předpovědi počasí z více než 4 000 letišť (zprávy METAR a TAF).

Červené a žluté tečky na mapě představují dostupné meteorologické stanice.

Když kurzor umístíte na tečku, zobrazí se název stanice.

Pak kliknutím zobrazíte stav a předpověď počasí.

Chcete-li změnit mapu, kliknutím na zelené tlačítko se znaménkem +mapu přiblížíte, kliknutím na zelené tlačítko se znaménkem – mapu oddálíte a kliknutím na zelené šipky přejdete na sousední mapy.


METAR-TAF: